• In Deutschland
  • Länderverzeichnis
  • Für 7 Tage
  • Wassertemperatur
  • Satellitenkarten
  • Wetterkarte
  • Widgets
  • user-avatar
    Anmelden

    Stündliche Wetter Wetzlar

    Heute, 18 August, Samstag

    Zeit Temperatur Niederschläge Wind Luftdruck Luftfeuchtigkeit
    00:00 +16°C° 0 mm 1 m/S 741 mmHg 89%
    01:00 +15°C° 0 mm 1 m/S 741 mmHg 89%
    02:00 +15°C° 0 mm 1 m/S 741 mmHg 89%
    03:00 +15°C° 0 mm 1 m/S 741 mmHg 89%
    04:00 +14°C° 0 mm 1 m/S 741 mmHg 89%
    05:00 +15°C° 0 mm 1 m/S 742 mmHg 87%
    06:00 +15°C° 0 mm 1 m/S 742 mmHg 84%
    07:00 +16°C° 0 mm 1 m/S 742 mmHg 81%
    08:00 +19°C° 0 mm 1 m/S 742 mmHg 73%
    09:00 +21°C° 0 mm 1 m/S 743 mmHg 64%
    10:00 +23°C° 0 mm 2 m/S 743 mmHg 55%
    11:00 +24°C° 0 mm 1 m/S 743 mmHg 50%
    12:00 +26°C° 0 mm 1 m/S 743 mmHg 45%
    13:00 +27°C° 0 mm 1 m/S 743 mmHg 40%
    14:00 +27°C° 0 mm 1 m/S 742 mmHg 39%
    15:00 +27°C° 0 mm 1 m/S 742 mmHg 37%
    16:00 +27°C° 0 mm 1 m/S 742 mmHg 36%
    17:00 +26°C° 0 mm 1 m/S 742 mmHg 42%
    18:00 +24°C° 0 mm 1 m/S 742 mmHg 48%
    19:00 +23°C° 0 mm 1 m/S 742 mmHg 53%
    20:00 +21°C° 0 mm 1 m/S 742 mmHg 56%
    21:00 +20°C° 0 mm 1 m/S 742 mmHg 59%
    22:00 +18°C° 0 mm 1 m/S 743 mmHg 62%
    23:00 +18°C° 0 mm 1 m/S 743 mmHg 65%

    Morgen, 19 August, Sonntag

    Zeit Temperatur Niederschläge Wind Luftdruck Luftfeuchtigkeit
    00:00 +16°C° 0 mm 1 m/S 743 mmHg 67%
    01:00 +16°C° 0 mm 1 m/S 743 mmHg 70%
    02:00 +15°C° 0 mm 1 m/S 743 mmHg 73%
    03:00 +15°C° 0 mm 1 m/S 742 mmHg 76%
    04:00 +14°C° 0 mm 0 m/S 742 mmHg 79%
    05:00 +15°C° 0 mm 0 m/S 743 mmHg 77%
    06:00 +15°C° 0 mm 0 m/S 743 mmHg 75%
    07:00 +16°C° 0 mm 0 m/S 743 mmHg 73%
    08:00 +19°C° 0 mm 0 m/S 743 mmHg 65%
    09:00 +21°C° 0 mm 0 m/S 743 mmHg 57%
    10:00 +24°C° 0 mm 0 m/S 743 mmHg 48%
    11:00 +27°C° 0 mm 1 m/S 743 mmHg 45%
    12:00 +28°C° 0 mm 1 m/S 743 mmHg 41%
    13:00 +28°C° 0 mm 1 m/S 742 mmHg 38%
    14:00 +29°C° 0 mm 1 m/S 742 mmHg 38%
    15:00 +29°C° 0 mm 1 m/S 741 mmHg 38%
    16:00 +29°C° 0 mm 1 m/S 741 mmHg 38%
    17:00 +28°C° 0 mm 1 m/S 741 mmHg 44%
    18:00 +26°C° 0 mm 1 m/S 741 mmHg 51%
    19:00 +25°C° 0 mm 1 m/S 741 mmHg 57%
    20:00 +23°C° 0 mm 1 m/S 741 mmHg 61%
    21:00 +22°C° 0 mm 1 m/S 741 mmHg 64%
    22:00 +20°C° 0 mm 1 m/S 741 mmHg 68%
    23:00 +20°C° 0 mm 1 m/S 741 mmHg 71%

    übermorgen, 20 August, Montag

    Zeit Temperatur Niederschläge Wind Luftdruck Luftfeuchtigkeit
    00:00 +19°C° 0 mm 1 m/S 741 mmHg 73%
    01:00 +19°C° 0 mm 1 m/S 740 mmHg 75%
    02:00 +18°C° 0 mm 1 m/S 740 mmHg 77%
    03:00 +16°C° 0 mm 0 m/S 740 mmHg 80%
    04:00 +16°C° 0 mm 0 m/S 740 mmHg 82%
    05:00 +18°C° 0 mm 1 m/S 740 mmHg 80%
    06:00 +19°C° 0 mm 1 m/S 740 mmHg 79%
    07:00 +20°C° 0 mm 1 m/S 740 mmHg 77%
    08:00 +22°C° 0 mm 1 m/S 741 mmHg 71%
    09:00 +23°C° 0 mm 2 m/S 741 mmHg 65%
    10:00 +25°C° 0 mm 2 m/S 741 mmHg 59%
    11:00 +26°C° 0 mm 2 m/S 741 mmHg 57%
    12:00 +26°C° 0 mm 3 m/S 740 mmHg 56%
    13:00 +26°C° 0 mm 3 m/S 740 mmHg 55%
    14:00 +26°C° 0 mm 3 m/S 740 mmHg 54%
    15:00 +26°C° 0 mm 3 m/S 740 mmHg 54%
    16:00 +26°C° 0 mm 3 m/S 740 mmHg 54%
    17:00 +25°C° 0 mm 3 m/S 740 mmHg 60%
    18:00 +24°C° 0 mm 2 m/S 740 mmHg 65%
    19:00 +23°C° 0 mm 2 m/S 740 mmHg 71%
    20:00 +21°C° 0 mm 2 m/S 740 mmHg 77%
    21:00 +21°C° 0 mm 1 m/S 740 mmHg 82%
    22:00 +19°C° 0 mm 1 m/S 741 mmHg 88%
    23:00 +19°C° 0 mm 1 m/S 741 mmHg 89%

    21 August, Dienstag

    Zeit Temperatur Niederschläge Wind Luftdruck Luftfeuchtigkeit
    00:00 +18°C° 0 mm 1 m/S 741 mmHg 91%
    01:00 +18°C° 0 mm 1 m/S 741 mmHg 92%
    02:00 +18°C° 0 mm 1 m/S 741 mmHg 92%
    03:00 +16°C° 0 mm 1 m/S 741 mmHg 93%
    04:00 +16°C° 0 mm 1 m/S 741 mmHg 93%
    05:00 +15°C° 0 mm 0 m/S 741 mmHg 90%
    06:00 +16°C° 0 mm 0 m/S 741 mmHg 88%
    07:00 +17°C° 0 mm 0 m/S 741 mmHg 85%
    08:00 +21°C° 0 mm 1 m/S 741 mmHg 75%
    09:00 +23°C° 0 mm 1 m/S 741 mmHg 65%
    10:00 +25°C° 0 mm 1 m/S 742 mmHg 56%
    11:00 +26°C° 0 mm 1 m/S 741 mmHg 52%
    12:00 +27°C° 0 mm 2 m/S 741 mmHg 49%
    13:00 +28°C° 0 mm 2 m/S 741 mmHg 46%
    14:00 +29°C° 0 mm 2 m/S 741 mmHg 45%
    15:00 +29°C° 0 mm 2 m/S 740 mmHg 45%
    16:00 +29°C° 0 mm 2 m/S 740 mmHg 45%
    17:00 +28°C° 0 mm 2 m/S 740 mmHg 52%
    18:00 +26°C° 0 mm 1 m/S 740 mmHg 58%
    19:00 +25°C° 0 mm 1 m/S 740 mmHg 64%
    20:00 +24°C° 0 mm 1 m/S 740 mmHg 69%
    21:00 +22°C° 0 mm 1 m/S 740 mmHg 74%
    22:00 +21°C° 0 mm 1 m/S 740 mmHg 79%
    23:00 +21°C° 0 mm 1 m/S 740 mmHg 82%

    22 August, Mittwoch

    Zeit Temperatur Niederschläge Wind Luftdruck Luftfeuchtigkeit
    00:00 +20°C° 0 mm 1 m/S 740 mmHg 84%
    01:00 +20°C° 0 mm 1 m/S 740 mmHg 87%
    02:00 +19°C° 0 mm 1 m/S 740 mmHg 88%
    03:00 +19°C° 0 mm 1 m/S 740 mmHg 89%
    04:00 +19°C° 0 mm 1 m/S 740 mmHg 90%
    05:00 +19°C° 0 mm 1 m/S 740 mmHg 88%
    06:00 +20°C° 0 mm 1 m/S 740 mmHg 86%
    07:00 +20°C° 0 mm 1 m/S 741 mmHg 84%
    08:00 +22°C° 0 mm 1 m/S 741 mmHg 77%
    09:00 +23°C° 0 mm 2 m/S 741 mmHg 69%
    10:00 +25°C° 0 mm 2 m/S 741 mmHg 61%
    11:00 +26°C° 0,1 mm 2 m/S 741 mmHg 58%
    12:00 +27°C° 0,1 mm 3 m/S 741 mmHg 55%
    13:00 +27°C° 0,1 mm 3 m/S 741 mmHg 52%
    14:00 +27°C° 0 mm 3 m/S 741 mmHg 50%
    15:00 +28°C° 0 mm 3 m/S 740 mmHg 49%
    16:00 +28°C° 0 mm 3 m/S 740 mmHg 48%
    17:00 +26°C° 0 mm 3 m/S 740 mmHg 53%
    18:00 +25°C° 0 mm 2 m/S 740 mmHg 57%
    19:00 +23°C° 0 mm 2 m/S 740 mmHg 62%
    20:00 +21°C° 0 mm 2 m/S 741 mmHg 65%
    21:00 +20°C° 0 mm 2 m/S 741 mmHg 68%
    22:00 +18°C° 0 mm 2 m/S 741 mmHg 70%
    23:00 +18°C° 0 mm 2 m/S 741 mmHg 72%

    23 August, Donnerstag

    Zeit Temperatur Niederschläge Wind Luftdruck Luftfeuchtigkeit
    00:00 +17°C° 0 mm 2 m/S 741 mmHg 73%
    01:00 +16°C° 0 mm 1 m/S 741 mmHg 75%
    02:00 +16°C° 0 mm 1 m/S 741 mmHg 76%
    03:00 +16°C° 0 mm 1 m/S 741 mmHg 78%
    04:00 +15°C° 0 mm 1 m/S 740 mmHg 79%
    05:00 +16°C° 0 mm 1 m/S 740 mmHg 77%
    06:00 +16°C° 0 mm 1 m/S 740 mmHg 75%
    07:00 +18°C° 0 mm 1 m/S 740 mmHg 73%
    08:00 +20°C° 0 mm 1 m/S 740 mmHg 66%
    09:00 +23°C° 0 mm 1 m/S 740 mmHg 58%
    10:00 +25°C° 0 mm 1 m/S 740 mmHg 50%
    11:00 +26°C° 0 mm 1 m/S 740 mmHg 47%
    12:00 +28°C° 0 mm 1 m/S 739 mmHg 44%
    13:00 +29°C° 0 mm 1 m/S 739 mmHg 40%
    14:00 +29°C° 0 mm 1 m/S 739 mmHg 40%
    15:00 +29°C° 0 mm 1 m/S 738 mmHg 40%
    16:00 +29°C° 0 mm 1 m/S 738 mmHg 40%
    17:00 +28°C° 0 mm 1 m/S 737 mmHg 45%
    18:00 +26°C° 0 mm 1 m/S 737 mmHg 50%
    19:00 +25°C° 0 mm 1 m/S 737 mmHg 55%
    20:00 +24°C° 0 mm 1 m/S 737 mmHg 57%
    21:00 +23°C° 0 mm 1 m/S 737 mmHg 59%
    22:00 +22°C° 0 mm 1 m/S 737 mmHg 62%
    23:00 +21°C° 0 mm 1 m/S 736 mmHg 65%
    Mehr zeigen